CST,Max TemperatureF,Mean TemperatureF,Min TemperatureF,Max Dew PointF,MeanDew PointF,Min DewpointF,Max Humidity, Mean Humidity, Min Humidity, Max Sea Level PressureIn, Mean Sea Level PressureIn, Min Sea Level PressureIn, Max VisibilityMiles, Mean VisibilityMiles, Min VisibilityMiles, Max Wind SpeedMPH, Mean Wind SpeedMPH, Max Gust SpeedMPH,PrecipitationIn, CloudCover, Events, WindDirDegrees
2013-1-1,75,66,57,68,64,55,100,90,73,30.10,30.01,29.95,10,6,4,17,9,21,0.01,4,Rain,166
2013-1-2,57,52,46,55,47,43,94,84,72,30.19,30.11,30.00,10,8,5,14,8,22,0.02,8,Rain,349
2013-1-3,46,40,33,45,39,32,100,85,66,30.36,30.27,30.18,10,7,4,13,7,17,0.10,5,Rain,352
2013-1-4,59,47,35,37,33,27,93,64,31,30.43,30.37,30.32,10,7,4,12,5,,0.00,0,,14
2013-1-5,55,48,42,39,34,30,66,55,38,30.37,30.31,30.25,10,8,5,10,6,,0.00,3,,51
2013-1-6,51,48,46,48,42,37,88,74,58,30.28,30.23,30.19,10,8,5,12,6,,0.01,7,Rain,14
2013-1-7,64,50,37,41,38,34,100,70,32,30.33,30.26,30.20,10,7,5,12,6,,0.00,0,,46
2013-1-8,69,60,50,59,52,37,88,74,62,30.26,30.19,30.16,10,7,3,14,7,16,0.00,6,,78
2013-1-9,71,66,60,68,64,55,100,91,77,30.26,30.21,30.17,10,6,2,15,7,20,0.00,8,Rain,83
2013-1-10,75,70,64,70,67,63,100,90,78,30.26,30.17,30.06,10,7,4,20,11,28,0.32,7,Rain,117
2013-1-11,78,71,64,70,67,63,100,87,69,30.16,30.11,30.08,10,7,4,15,6,20,0.00,4,,144
2013-1-12,78,73,68,70,69,66,100,88,69,30.13,30.06,29.99,10,6,4,15,9,23,0.00,6,,134
2013-1-13,77,74,71,70,70,70,94,90,78,30.02,30.00,29.96,7,6,4,20,14,26,0.00,6,,153
2013-1-14,78,64,51,70,61,52,100,92,74,30.12,30.07,30.02,10,5,2,16,6,20,0.00,7,Rain,1
2013-1-15,73,62,51,72,62,52,100,96,88,30.07,30.00,29.94,10,4,0,16,6,24,0.27,8,Fog-Rain,125
2013-1-16,69,56,44,68,51,45,100,96,87,30.06,30.00,29.95,10,6,1,10,7,,0.33,8,Rain,328
2013-1-17,51,45,39,45,36,32,100,74,50,30.36,30.18,30.05,10,9,2,18,11,30,0.00,5,Rain,304
2013-1-18,60,46,33,37,35,32,100,72,34,30.51,30.43,30.36,10,8,4,14,8,18,0.00,0,,8
2013-1-19,66,50,35,46,40,34,100,77,43,30.39,30.31,30.25,10,8,3,9,2,,0.00,1,,32
2013-1-20,64,50,35,48,42,34,100,80,32,30.29,30.21,30.14,10,7,1,9,1,,0.00,0,,319
2013-1-21,66,52,37,46,41,37,100,70,35,30.23,30.17,30.13,10,8,0,10,3,,0.00,0,Snow,342
2013-1-22,60,48,37,41,34,28,93,61,31,30.37,30.31,30.21,10,10,7,13,6,,0.00,0,,9
2013-1-23,66,50,33,52,44,34,100,79,49,30.42,30.35,30.31,10,9,1,9,1,,0.00,1,,198
2013-1-24,69,55,41,55,51,41,100,83,56,30.36,30.30,30.25,10,8,0,12,3,16,0.00,2,Fog,231
2013-1-25,71,56,42,59,53,43,100,84,57,30.31,30.24,30.18,10,6,0,13,2,,0.00,2,Fog,188
2013-1-26,71,60,50,63,57,50,100,88,69,30.27,30.23,30.18,10,5,0,8,3,16,0.00,3,Fog,249
2013-1-27,73,62,50,61,56,50,100,88,61,30.33,30.27,30.25,10,4,0,10,3,,0.00,3,Fog,104
2013-1-28,77,64,50,68,60,50,100,87,61,30.30,30.24,30.16,7,4,0,13,4,16,0.00,7,Fog,110
2013-1-29,78,74,69,72,70,68,100,90,74,30.16,30.04,29.89,7,6,4,24,13,31,0.00,8,,145
2013-1-30,77,62,46,72,58,30,100,84,53,30.13,29.85,29.72,10,6,3,26,18,40,0.40,6,Rain,219
2013-1-31,59,50,42,41,32,25,67,51,27,30.32,30.24,30.13,10,10,7,20,10,29,0.00,0,,295